Voltar ao catálogo

FORMOSAT-5

AtivoCiênciaSSO
NORAD 42920·PAYLOAD·🇹🇼 Taiwan

Lançado Aug 24, 2017 de Vandenberg Space Force Base

Loading…

Próximas Passagens (próximas 24 horas)

TLE

AtualizadoSource: Space-Track

Época: Sep 14, 2026, 15:15 UTC

1 42920U 17049A   26257.63604093  .00000091  00000-0  34140-4 0  9997
2 42920  98.2188 330.9282 0011839 162.4351 197.7256 14.50907823479642

Acompanhe FORMOSAT-5 em tempo real com AllMySat

Download on the App Store